Regional Weather Roundup
Issued by NWS Newport/Morehead, NC

Current Version | Previous Version | Graphics & Text | Print | Product List | Glossary Off
Versions: 1 2 3 4 5 6 7 8 9 10 11 12 13 14 15 16 17 18 19 20 21 22 23 24 25 26 27 28 29 30 31 32 33 34 35 36 37 38 39 40 41 42 43 44 45 46 47 48 49 50

000
ASUS42 KMHX 141713
RWRMHX
WEATHER ROUNDUP FOR EASTERN NORTH CAROLINA
NATIONAL WEATHER SERVICE NEWPORT/MOREHEAD CITY NC
1200 PM EST THU DEC 14 2017

NOTE: "FAIR" INDICATES FEW OR NO CLOUDS BELOW 12,000 FEET
WITH NO SIGNIFICANT WEATHER AND/OR OBSTRUCTIONS TO VISIBILITY

NCZ015>017-031-032-045>047-102-103-141800-
NORTH COAST

CITY           SKY/WX    TMP DP  RH WIND       PRES   REMARKS
EDENTON        SUNNY     54  29  38 W7        29.84S
ELIZABETH CITY SUNNY     55  32  41 W14       29.81F
KITTY HAWK     SUNNY     47  28  47 W10G20    29.81F
MANTEO         SUNNY     51  30  45 NW8       29.83F

$$

NCZ045>047-081-094-103-104-141800-
CENTRAL COAST

CITY           SKY/WX    TMP DP  RH WIND       PRES   REMARKS
FRISCO         SUNNY     51  36  56 W9G18     29.84F

$$

NCZ095-097-098-100-101-141800-
SOUTHERN COAST

CITY           SKY/WX    TMP DP  RH WIND       PRES   REMARKS
BEAUFORT       SUNNY     53  33  46 W10       29.86F
CEDAR ISLAND   NOT AVBL
JACKSONVILLE   SUNNY     56  30  37 W9        29.86F
PINEY ISLAND     N/A    N/A N/A N/A W12       29.85S
WILMINGTON     SUNNY     56  30  37 W9        29.88F


$$

NCZ011>013-027>030-043-044-078>080-089-090>093-098-141800-
COASTAL PLAIN

CITY           SKY/WX    TMP DP  RH WIND       PRES   REMARKS
AHOSKIE        SUNNY     53  26  36 W5        29.83S
CLINTON        SUNNY     53  30  41 W5        29.88S
ELIZABETHTOWN  NOT AVBL
GOLDSBORO      SUNNY     56  26  31 W13       29.84F
GREENVILLE     SUNNY     52  27  37 W10G16    29.88S
HAVELOCK       SUNNY     56  31  38 W10       29.87S
KENANSVILLE    SUNNY     54  28  37 W7        29.87S
KINSTON        SUNNY     55  27  33 W6        29.87S
NEW BERN       SUNNY     54  29  38 W8        29.87S
RICHLANDS      SUNNY     56  30  37 W9        29.87F
ROCKY MOUNT    SUNNY     53  26  35 W12       29.85F
WASHINGTON     SUNNY     53  26  34 W9        29.85S
WHITEVILLE     SUNNY     54  30  39 SW7       29.89S

$$

AMZ130-135-150-152-154-156-158-170-250-252-270-ANZ085-086-088-633-658-670-141800-
MARINE OBSERVATIONS

STATION/POSITION TIME  TEMP    WIND        PRES    WAVE   SWELL
                       AIR SEA DIR/SP/G            HT/PER HT/PER
                 (UTC) (F)     (DEG/KT/KT) (MB)    (FT/S) (FT/S)
CHESAPEAKE LIGHT NOT AVBL
64 E VA BEACH    1650   54 61  270/ 23/ 27 1008.5    7/ 6
DUCK             1636   47 52  260/ 12/ 16 1009.2
2 E DUCK         1700      55                N/A     1/ 7
OREGON INLET     1636   50 41  270/  9/ 14 1009.7
13E OREGON INLT  1648      61                N/A     4/ 8   3/ 8
HATTERAS CG      1636   48 50  260/  9/ 15 1010.3
DIAMOND BUOY     1700   56 73  260/ 16/ 19 1010.8
CAPE LOOKOUT     1700          260/ 13/ 15 1011.6
BEAUFORT LAB     1636   51 50  260/  5/  7 1011.1
30 SE NEW RVR IN 1608   53 64  270/ 14/ 17 1012.0
30 SE NEW RVR IN 1700      65                N/A     7/ 6
27 SE WRIGHTSVLE 1608   53 65  260/ 14/ 19 1012.3
5 SE WRIGHTSVLE  1608   51 56  280/ 10/ 14 1011.9
225 S CAPE HAT   1650   68 74  260/ 21/ 27 1013.4    9/ 8   2/17
41 SE CHARLESTON 1650      73  260/ 16/ 19 1013.7    6/ 7   2/11

$$




USA.gov is the U.S. government's official web portal to all federal, state and local government web resources and services.